Weather History for Douglas, WY

Change the Weather History Date:

Monday, December 3, 2012

  Actual Average Record
Temperature  
Mean Temperature 39 °F 26 °F  
Max Temperature 54 °F 39 °F 55 °F (2001)
Min Temperature 24 °F 13 °F -4 °F (2006)
Degree Days  
Heating Degree Days 26 39  
Month to date heating degree days 59 117  
Since 1 July heating degree days 1606 1939  
Cooling Degree Days 0 0  
Month to date cooling degree days 0 0  
Year to date cooling degree days 831 486  
Moisture  
Dew Point 19 °F    
Average Humidity 54    
Maximum Humidity 85    
Minimum Humidity 23    
Precipitation  
Precipitation T in 0.01 in 0.07 in (2013)
Month to date precipitation T 0.04  
Year to date precipitation 5.26 13.03  
Sea Level Pressure  
Sea Level Pressure 29.97 in    
Wind  
Wind Speed 13 mph (WNW)    
Max Wind Speed 44 mph    
Max Gust Speed 54 mph    
Visibility 10 miles    
Events      
T = Trace of Precipitation, MM = Missing Value Source: NWS Daily Summary

Daily Weather History Graph

Daily Weather History Graph

Search for Another Location

Airport:

Trip Planner

Search our weather history database for the weather conditions in past years. The results will help you decide how hot, cold, wet, or windy it might be!

Date:

Astronomy

Dec. 03, 2012 Rise Set
Actual Time 7:15 AM MST 4:27 PM MST
Civil Twilight 6:43 AM MST 4:59 PM MST
Nautical Twilight 6:07 AM MST 5:35 PM MST
Astronomical Twilight 5:33 AM MST 6:09 PM MST
Moon 9:21 PM MST (12/3) 10:36 AM MST (12/3)
Length of Visible Light 10h 16m
Length of Day
9h 12m
Waning Gibbous, 77% of the Moon is Illuminated
Dec 3
Waning Gibbous
Dec 6
Last Quarter
Dec 13
New
Dec 19
First Quarter
Dec 28
Full

Hourly Weather History & Observations

Time (MST) Temp. Windchill Dew Point Humidity Pressure Visibility Wind Dir Wind Speed Gust Speed Precip Events Conditions
12:53 AM 52.0 °F - 33.1 °F 49% 29.57 in 10.0 mi West 31.1 mph 48.3 mph N/A   Overcast
1:53 AM 45.0 °F 38.5 °F 32.0 °F 60% 29.63 in 10.0 mi NW 13.8 mph - N/A   Partly Cloudy
2:53 AM 37.9 °F 27.3 °F 30.9 °F 76% 29.73 in 10.0 mi North 21.9 mph - N/A   Partly Cloudy
3:53 AM 37.0 °F 26.7 °F 30.0 °F 76% 29.80 in 10.0 mi North 19.6 mph - N/A   Partly Cloudy
4:53 AM 39.9 °F 32.9 °F 28.0 °F 63% 29.83 in 10.0 mi NW 11.5 mph - N/A   Mostly Cloudy
5:53 AM 33.1 °F 25.5 °F 25.0 °F 72% 29.92 in 10.0 mi WNW 9.2 mph - 0.00 in   Scattered Clouds
6:53 AM 28.9 °F 25.2 °F 25.0 °F 85% 29.97 in 10.0 mi NNW 3.5 mph - N/A   Clear
8:53 AM 35.1 °F - 28.0 °F 76% 29.97 in 10.0 mi Calm Calm - N/A   Clear
9:53 AM 43.0 °F 34.8 °F 17.1 °F 35% 29.98 in 10.0 mi West 18.4 mph 25.3 mph N/A   Clear
10:53 AM 45.0 °F 37.6 °F 16.0 °F 31% 29.97 in 10.0 mi WNW 17.3 mph 23.0 mph N/A   Clear
11:53 AM 46.9 °F - 16.0 °F 29% 29.93 in 10.0 mi West 25.3 mph - N/A   Clear
12:53 PM 48.0 °F - 14.0 °F 26% 29.94 in 10.0 mi WNW 21.9 mph 31.1 mph N/A   Clear
1:53 PM 48.9 °F - 12.0 °F 23% 29.96 in 10.0 mi West 18.4 mph 29.9 mph N/A   Clear
2:53 PM 48.0 °F - 14.0 °F 26% 29.99 in 10.0 mi WNW 19.6 mph - N/A   Clear
3:53 PM 45.0 °F 37.4 °F 14.0 °F 29% 30.04 in 10.0 mi West 18.4 mph - N/A   Clear
4:53 PM 39.0 °F 32.3 °F 10.0 °F 30% 30.08 in 10.0 mi WSW 10.4 mph - N/A   Clear
5:53 PM 35.1 °F 28.6 °F 12.0 °F 39% 30.15 in 10.0 mi WSW 8.1 mph - N/A   Clear
6:53 PM 34.0 °F 25.5 °F 12.9 °F 42% 30.17 in 10.0 mi West 11.5 mph - N/A   Clear
7:53 PM 32.0 °F 23.6 °F 12.9 °F 45% 30.19 in 10.0 mi West 10.4 mph - N/A   Clear
8:53 PM 37.0 °F 33.3 °F 15.1 °F 41% 30.20 in 10.0 mi Variable 4.6 mph - N/A   Clear
9:53 PM 35.1 °F 25.9 °F 15.1 °F 44% 30.18 in 10.0 mi West 13.8 mph - N/A   Clear
11:53 PM 25.0 °F - 14.0 °F 63% 30.24 in 10.0 mi Calm Calm - N/A   Clear